[[{"header":{"parameterUnit":"m.s-1","parameterCategory":1,"la1":30.2991,"la2":30.254,"lo1":-89.0895,"lo2":-89.0444,"dy":0.0017,"dx":0.0017,"nx":28,"ny":28,"refTime":"2024-10-12T03:00:00:Z","depth":0,"parameterNumber":2,"parameterNumberName":"U-component_of_WINDS"},"data":[0,0,0,0,0,0,0,0,0,0,0,0,0,0,0,0,0,0,0,0,0,0,0,0,0,0,0,0,0,0,0,0,0,0,0,0,0,0,0,0,0,0,0,0,0,0,0,0,0,0,0,0,0,0,0,0,0,0,0.7498,0.7498,0,0.7484,0.7484,0.7484,0.7474,0.7474,0.7474,0.7474,0.7458,0.7458,0.7458,0,0,0,0,0,0,0,0,0,0,0,0,0,0.7514,0.7513,0.7498,0.7498,0.7498,0.7484,0.7484,0.7484,0.7474,0.7474,0.7474,0.7474,0.7458,0.7458,0.7458,0,0,0,0,0,0,0,0,0,0,0,0,0,0.7504,0.7513,0.7498,0.7491,0.7491,0.7484,0.7484,0.7484,0.7474,0.7474,0.7474,0.7474,0.7459,0.7458,0.7457,0.7456,0,0,0.7456,0.7456,0,0,0,0,0,0,0,0,0.7504,0.7503,0.7493,0.7492,0.7491,0.7481,0.7483,0.7474,0.7474,0.748,0.7474,0.7474,0.7466,0.7465,0.7462,0.7455,0.7454,0.7456,0.7455,0.7455,0.7455,0,0,0,0,0,0,0,0.7505,0.7504,0.7492,0.7492,0.7491,0.7488,0.7487,0.7482,0.7474,0.748,0.7479,0.7478,0.7465,0.7463,0.7462,0.7454,0.7456,0.7455,0.7455,0.7455,0.7442,0.7442,0,0,0,0,0,0,0.7507,0.7504,0.7493,0.7492,0.7498,0.7488,0.7486,0.7484,0.7474,0.7472,0.7478,0.7477,0.7464,0.7462,0.7461,0.7457,0.7455,0.7455,0.7454,0.7442,0.7442,0.7442,0,0,0,0,0,0,0.7508,0.7506,0.7493,0.7498,0.7496,0.7488,0.7485,0.7484,0.7481,0.7472,0.7471,0.7477,0.7464,0.7462,0.7457,0.7456,0.7454,0.7454,0.7442,0.7442,0.7442,0.7449,0,0,0,0,0,0,0.7508,0.7506,0.7507,0.7498,0.7496,0.749,0.7485,0.7484,0.7481,0.748,0.7471,0.7469,0.7463,0.7458,0.7456,0.7455,0.7454,0.7442,0.7442,0.7442,0.7449,0.745,0.745,0,0,0,0,0,0.7509,0.7509,0.7507,0.7505,0.7496,0.749,0.7489,0.7483,0.7481,0.748,0.7474,0.747,0.7456,0.7457,0.7455,0.7455,0.7442,0.7442,0.7442,0.7449,0.7449,0.745,0,0,0,0,0,0,0.7518,0.7508,0.7505,0.7504,0.7498,0.7489,0.7488,0.7484,0.7478,0.7478,0.747,0.7468,0.7463,0.7458,0.7459,0.7451,0.7449,0.7448,0.7454,0.7455,0.7455,0.7456,0.7453,0,0,0,0,0,0.752,0.7517,0.7508,0.7508,0.7505,0.7497,0.7494,0.749,0.7483,0.7481,0.7474,0.7467,0.7461,0.7458,0.7452,0.7448,0.7445,0.7446,0.7447,0.7447,0.7447,0.7442,0.7442,0.7442,0.7442,0.7442,0,0,0.7524,0.7518,0.7517,0.7509,0.7504,0.75,0.7495,0.7491,0.7487,0.748,0.7474,0.7469,0.7461,0.7456,0.7453,0.7452,0.7446,0.7447,0.7448,0.7447,0.7442,0.7442,0.7442,0.7442,0.7442,0.7442,0,0,0.7529,0.7525,0.7523,0.7518,0.751,0.7505,0.7504,0.7495,0.7491,0.7486,0.7479,0.7474,0.7465,0.7458,0.7454,0.7454,0.7449,0.7452,0.7454,0.745,0.745,0.7449,0.7448,0.7447,0.7452,0.7452,0.7452,0,0.7535,0.7529,0.7523,0.7518,0.7514,0.7507,0.7504,0.7499,0.749,0.7486,0.7485,0.7471,0.7466,0.7458,0.7457,0.7455,0.7452,0.7453,0.745,0.745,0.745,0.7448,0.7448,0.7452,0.7452,0.7452,0.7452,0,0.7536,0.7531,0.7531,0.7521,0.7517,0.7514,0.7505,0.7501,0.7496,0.749,0.7483,0.7476,0.7467,0.7465,0.7461,0.7456,0.7455,0.7452,0.7449,0.745,0.7448,0.7448,0.7453,0.7453,0.7452,0.7452,0,0,0.7548,0.7533,0.7533,0.7528,0.7518,0.7514,0.7509,0.7501,0.7497,0.749,0.7485,0.7476,0.7472,0.7467,0.7462,0.7458,0.7456,0.7455,0.7454,0.7454,0.7447,0.7449,0.7449,0.7452,0.7452,0.7452,0.7448,0,0.755,0.7542,0.7534,0.7528,0.7523,0.7515,0.751,0.7502,0.7496,0.749,0.7482,0.7476,0.7473,0.7469,0.7465,0.7457,0.7454,0.7457,0.7446,0.7445,0.7447,0.7448,0.745,0.7447,0.7447,0.7447,0.7447,0,0.7552,0.7545,0.7538,0.7527,0.7524,0.7521,0.7511,0.7506,0.7496,0.7492,0.7485,0.7479,0.7471,0.7469,0.7458,0.746,0.7455,0.745,0.7449,0.7448,0.7446,0.7445,0.7445,0.7445,0.7446,0.7446,0.7446,0,0.7559,0.7549,0.7542,0.7538,0.7525,0.7522,0.7516,0.7507,0.7502,0.7493,0.7489,0.748,0.7474,0.7467,0.7457,0.7457,0.7446,0.7444,0.7441,0.7441,0.7439,0.7439,0.7437,0.7437,0.7437,0.7437,0.7437,0,0.7563,0.7558,0.7545,0.7542,0.7536,0.7527,0.7521,0.7514,0.7505,0.7499,0.7491,0.7485,0.7473,0.7465,0.7458,0.7448,0.7446,0.7441,0.7439,0.7442,0.7442,0.7438,0.7437,0.7437,0.7437,0.7437,0.7437,0,0.757,0.7561,0.7554,0.7541,0.7538,0.7534,0.7523,0.7518,0.7511,0.7502,0.75,0.7488,0.7478,0.7468,0.7454,0.7449,0.7439,0.7437,0.7443,0.7441,0.7438,0.7438,0.7433,0.7431,0.7433,0.7433,0.7433,0,0.7572,0.7569,0.7555,0.7551,0.7545,0.7538,0.7532,0.7522,0.7516,0.7503,0.75,0.7489,0.748,0.7464,0.7453,0.7442,0.7439,0.7438,0.7437,0.7439,0.7437,0.7437,0.7436,0.7438,0.7438,0.7438,0.7438,0,0.7577,0.7572,0.7564,0.7555,0.7548,0.754,0.7531,0.7527,0.7515,0.7509,0.7498,0.7491,0.7477,0.7466,0.7453,0.7446,0.7439,0.7438,0.7437,0.7439,0.7442,0.7439,0.7443,0.7439,0.7439,0.7439,0.7439,0.7439,0.7581,0.7576,0.7566,0.7557,0.7549,0.7541,0.7535,0.7526,0.7518,0.7505,0.75,0.7489,0.7477,0.7459,0.7451,0.7442,0.744,0.7438,0.7438,0.7437,0.7437,0.7444,0.744,0.7439,0.7439,0.7439,0.7439,0,0.7583,0.7576,0.7568,0.7555,0.7548,0.7543,0.7532,0.7526,0.7517,0.7506,0.7497,0.7484,0.7473,0.746,0.7448,0.7442,0.7439,0.7439,0.7439,0.7437,0.744,0.7442,0.7442,0.7442,0.7442,0.7442,0.7442,0.7442,0.7584,0.7575,0.7569,0.7556,0.7548,0.7538,0.7532,0.7523,0.7515,0.7501,0.7491,0.7483,0.7471,0.7458,0.7446,0.7443,0.7438,0.7439,0.7434,0.7437,0.7437,0.7437,0.7439,0.7438,0.7438,0.7432,0.7432,0.7432]},{"header":{"parameterUnit":"m.s-1","parameterCategory":1,"la1":30.2991,"la2":30.254,"lo1":-89.0895,"lo2":-89.0444,"dy":0.0017,"dx":0.0017,"nx":28,"ny":28,"refTime":"2024-10-12T03:00:00:Z","depth":0,"parameterNumber":3,"parameterNumberName":"V-component_of_WINDS"},"data":[0,0,0,0,0,0,0,0,0,0,0,0,0,0,0,0,0,0,0,0,0,0,0,0,0,0,0,0,0,0,0,0,0,0,0,0,0,0,0,0,0,0,0,0,0,0,0,0,0,0,0,0,0,0,0,0,0,0,2.1694,2.1694,0,2.1667,2.1667,2.1667,2.1622,2.1621,2.162,2.1619,2.1591,2.1591,2.1591,0,0,0,0,0,0,0,0,0,0,0,0,0,2.1703,2.1704,2.1694,2.1694,2.1693,2.1667,2.1667,2.1667,2.1622,2.1621,2.162,2.1619,2.1591,2.1591,2.1591,0,0,0,0,0,0,0,0,0,0,0,0,0,2.169,2.1704,2.1694,2.1668,2.1665,2.1667,2.1667,2.1666,2.1622,2.1621,2.162,2.1619,2.1591,2.1591,2.1591,2.1616,0,0,2.1591,2.1591,0,0,0,0,0,0,0,0,2.1691,2.169,2.1672,2.167,2.1667,2.1647,2.166,2.165,2.1623,2.1639,2.1619,2.1618,2.1611,2.1609,2.1607,2.1615,2.1614,2.1591,2.1591,2.1591,2.1591,0,0,0,0,0,0,0,2.1692,2.1691,2.1683,2.1672,2.1669,2.1657,2.1653,2.1658,2.1632,2.1637,2.1634,2.1631,2.1609,2.1607,2.1606,2.1613,2.1591,2.1591,2.1591,2.1591,2.1637,2.1638,0,0,0,0,0,0,2.1697,2.1692,2.1684,2.1682,2.1676,2.1657,2.1654,2.1654,2.1632,2.1627,2.1632,2.1629,2.1607,2.1606,2.1604,2.163,2.1591,2.1591,2.1591,2.1636,2.1637,2.1639,0,0,0,0,0,0,2.1698,2.1697,2.1685,2.1686,2.1684,2.1659,2.166,2.1654,2.1652,2.1628,2.1623,2.1635,2.1606,2.1604,2.1613,2.1628,2.1591,2.1591,2.1635,2.1636,2.1638,2.1682,0,0,0,0,0,0,2.1698,2.1697,2.1707,2.1687,2.1684,2.1695,2.1661,2.1655,2.1653,2.1648,2.1629,2.1625,2.1605,2.1613,2.1613,2.1628,2.1591,2.1633,2.1635,2.1637,2.1679,2.1685,2.1691,0,0,0,0,0,2.1699,2.1721,2.1708,2.1707,2.1696,2.1696,2.1694,2.1671,2.1654,2.1663,2.1647,2.1626,2.1627,2.1614,2.1614,2.1629,2.1632,2.1635,2.1637,2.1677,2.1684,2.169,0,0,0,0,0,0,2.1745,2.1718,2.1703,2.172,2.1711,2.1689,2.17,2.168,2.1675,2.1672,2.1643,2.1639,2.1651,2.1641,2.1627,2.165,2.1626,2.1629,2.1656,2.1663,2.1668,2.167,2.1591,0,0,0,0,0,2.1757,2.176,2.1736,2.1753,2.1749,2.1725,2.1725,2.1708,2.1696,2.1692,2.1677,2.1666,2.1664,2.1663,2.166,2.1678,2.1672,2.1688,2.1693,2.1698,2.17,2.1706,2.1712,2.1648,2.1648,2.1647,0,0,2.1782,2.1768,2.1771,2.1762,2.1753,2.1755,2.1722,2.1727,2.1728,2.1693,2.1699,2.1687,2.1674,2.1686,2.1691,2.1678,2.1717,2.1701,2.1705,2.1705,2.1709,2.1716,2.1721,2.1649,2.1649,2.1649,0,0,2.1828,2.1819,2.1831,2.1822,2.1808,2.1791,2.1794,2.1774,2.1765,2.1771,2.1744,2.1744,2.1742,2.1732,2.1727,2.1767,2.1746,2.1767,2.1796,2.1802,2.1807,2.1811,2.1823,2.1828,2.177,2.177,2.177,0,2.1861,2.1864,2.1839,2.1845,2.184,2.1808,2.1819,2.1812,2.1797,2.1794,2.178,2.1774,2.1763,2.1772,2.1781,2.1779,2.178,2.1769,2.1808,2.1812,2.1816,2.1827,2.1832,2.1772,2.1772,2.1772,2.1771,0,2.1904,2.1906,2.1917,2.1903,2.19,2.1909,2.1884,2.1884,2.1867,2.1851,2.1856,2.1841,2.1833,2.1834,2.1818,2.184,2.1832,2.1814,2.1789,2.1825,2.1835,2.1839,2.1776,2.1775,2.1774,2.1773,0,0,2.1979,2.195,2.1954,2.1946,2.1927,2.1928,2.1934,2.1926,2.1925,2.1916,2.1919,2.1916,2.1898,2.1892,2.1875,2.188,2.191,2.1861,2.186,2.1868,2.193,2.1942,2.1948,2.1896,2.1897,2.1897,2.193,0,2.202,2.2028,2.2005,2.2019,2.2019,2.1988,2.1993,2.1981,2.1966,2.1964,2.1947,2.1945,2.1923,2.1919,2.1923,2.1905,2.1921,2.1903,2.1896,2.1896,2.1899,2.1953,2.1967,2.1998,2.1934,2.1935,2.1935,0,2.2069,2.2061,2.2075,2.2053,2.2052,2.2057,2.2046,2.2045,2.203,2.2018,2.2011,2.1989,2.1992,2.1969,2.197,2.1958,2.1954,2.1945,2.1945,2.1943,2.1917,2.195,2.2008,2.2012,2.1941,2.1941,2.194,0,2.2119,2.2112,2.2119,2.2113,2.2089,2.2092,2.2082,2.2066,2.2062,2.2052,2.2048,2.204,2.2034,2.2027,2.2003,2.1989,2.2007,2.1982,2.1996,2.1996,2.2,2.2,2.2057,2.2001,2.2001,2.2,2.2,0,2.2166,2.2175,2.2141,2.2145,2.2153,2.2126,2.2135,2.2121,2.2107,2.2106,2.2079,2.2079,2.2048,2.2044,2.2026,2.2028,2.2027,2.2016,2.2011,2.2018,2.2019,2.2014,2.201,2.2002,2.2001,2.2001,2.2001,0,2.2223,2.2201,2.2206,2.2181,2.2175,2.2182,2.2161,2.2163,2.2146,2.2145,2.2144,2.2117,2.2111,2.2086,2.2075,2.2062,2.2069,2.2061,2.2075,2.2071,2.2085,2.2083,2.2139,2.2144,2.2087,2.2087,2.2088,0,2.2254,2.226,2.2236,2.2234,2.2224,2.2221,2.2216,2.219,2.2185,2.2168,2.2171,2.2162,2.2154,2.2145,2.2124,2.2114,2.2103,2.2123,2.2101,2.2107,2.2101,2.21,2.2099,2.2128,2.2128,2.2129,2.2129,0,2.231,2.2298,2.2292,2.2282,2.2277,2.2268,2.2257,2.2256,2.2226,2.2222,2.2215,2.2209,2.2196,2.2187,2.2173,2.2161,2.2139,2.2137,2.2139,2.2145,2.2152,2.2146,2.2085,2.2135,2.2135,2.2134,2.2134,2.2134,2.2353,2.2356,2.2339,2.2333,2.2322,2.2311,2.2311,2.2294,2.2288,2.2275,2.2259,2.2253,2.2236,2.2215,2.2204,2.2199,2.2187,2.2191,2.2191,2.2192,2.2195,2.2154,2.2196,2.2196,2.2196,2.2196,2.2196,0,2.2406,2.2393,2.2388,2.2372,2.2367,2.2348,2.2334,2.233,2.2326,2.2312,2.2303,2.2294,2.2285,2.2262,2.225,2.225,2.2239,2.2247,2.2246,2.2243,2.2207,2.2205,2.2256,2.2256,2.2256,2.2256,2.2256,2.2256,2.2432,2.2435,2.2421,2.2417,2.2404,2.2399,2.2392,2.2382,2.237,2.2361,2.2353,2.2338,2.232,2.2306,2.2296,2.2289,2.2285,2.2296,2.2286,2.2252,2.2246,2.2241,2.2239,2.2296,2.2296,2.2322,2.2323,2.2323]}]]